| time (UTC) | temp F | wind direction | speed MPH | gust MPH | rain 1hr in | rain 24hr in | rain mn in | humidity % | barometer mb |
| 20260508225040 | 77 | 244 | 5.0 | 14.0 | 0.00 | 0.00 | 0.00 | 26 | 1014.0 |
| 20260508224556 | 76 | 190 | 5.0 | 11.0 | 0.00 | 0.00 | 0.00 | 26 | 1014.1 |
| 20260508224040 | 76 | 338 | 5.0 | 9.0 | 0.00 | 0.00 | 0.00 | 27 | 1014.1 |
| 20260508223539 | 77 | 70 | 3.0 | 11.0 | 0.00 | 0.00 | 0.00 | 27 | 1014.2 |
| 20260508223052 | 78 | 319 | 4.0 | 11.0 | 0.00 | 0.00 | 0.00 | 24 | 1014.3 |
| 20260508222540 | 77 | 259 | 5.0 | 12.0 | 0.00 | 0.00 | 0.00 | 25 | 1014.4 |
| 20260508222039 | 77 | 281 | 3.0 | 13.0 | 0.00 | 0.00 | 0.00 | 25 | 1014.4 |
| 20260508221553 | 77 | 257 | 5.0 | 13.0 | 0.00 | 0.00 | 0.00 | 26 | 1014.6 |
| 20260508221039 | 77 | 250 | 7.0 | 13.0 | 0.00 | 0.00 | 0.00 | 25 | 1014.6 |
| 20260508220539 | 77 | 260 | 3.0 | 13.0 | 0.00 | 0.00 | 0.00 | 26 | 1014.6 |
| 20260508220059 | 77 | 0 | 4.0 | 14.0 | 0.00 | 0.00 | 0.00 | 25 | 1014.7 |
| 20260508215539 | 77 | 306 | 7.0 | 14.0 | 0.00 | 0.00 | 0.00 | 26 | 1014.7 |
| 20260508215039 | 77 | 329 | 9.0 | 14.0 | 0.00 | 0.00 | 0.00 | 27 | 1014.8 |
| 20260508214603 | 77 | 306 | 1.0 | 10.0 | 0.00 | 0.00 | 0.00 | 27 | 1014.9 |
| 20260508214038 | 76 | 302 | 5.0 | 14.0 | 0.00 | 0.00 | 0.00 | 25 | 1014.9 |
| 20260508213538 | 76 | 304 | 4.0 | 14.0 | 0.00 | 0.00 | 0.00 | 28 | 1014.9 |
| 20260508213050 | 76 | 300 | 7.0 | 14.0 | 0.00 | 0.00 | 0.00 | 27 | 1015.1 |
| 20260508212539 | 76 | 311 | 1.0 | 13.0 | 0.00 | 0.00 | 0.00 | 27 | 1015.1 |
| 20260508212040 | 76 | 287 | 7.0 | 14.0 | 0.00 | 0.00 | 0.00 | 26 | 1015.2 |
| 20260508211548 | 76 | 311 | 5.0 | 14.0 | 0.00 | 0.00 | 0.00 | 27 | 1015.3 |
| 20260508211038 | 76 | 296 | 8.0 | 14.0 | 0.00 | 0.00 | 0.00 | 26 | 1015.3 |
| 20260508210539 | 76 | 180 | 6.0 | 14.0 | 0.00 | 0.00 | 0.00 | 26 | 1015.3 |
| 20260508210055 | 76 | 266 | 4.0 | 14.0 | 0.00 | 0.00 | 0.00 | 26 | 1015.4 |
| 20260508205538 | 76 | 310 | 9.0 | 14.0 | 0.00 | 0.00 | 0.00 | 27 | 1015.5 |
| 20260508205040 | 75 | 231 | 4.0 | 13.0 | 0.00 | 0.00 | 0.00 | 27 | 1015.5 |
| 20260508204553 | 75 | 304 | 5.0 | 14.0 | 0.00 | 0.00 | 0.00 | 28 | 1015.6 |
| 20260508204038 | 75 | 270 | 5.0 | 14.0 | 0.00 | 0.00 | 0.00 | 27 | 1015.6 |
| 20260508203540 | 75 | 296 | 7.0 | 14.0 | 0.00 | 0.00 | 0.00 | 27 | 1015.8 |
| 20260508203053 | 75 | 288 | 7.0 | 12.0 | 0.00 | 0.00 | 0.00 | 27 | 1015.8 |
| 20260508202542 | 75 | 302 | 6.0 | 15.0 | 0.00 | 0.00 | 0.00 | 28 | 1015.8 |
| 20260508202038 | 75 | 229 | 5.0 | 15.0 | 0.00 | 0.00 | 0.00 | 28 | 1015.7 |
| 20260508201552 | 74 | 252 | 9.0 | 15.0 | 0.00 | 0.00 | 0.00 | 27 | 1015.8 |
| 20260508201044 | 74 | 276 | 3.0 | 13.0 | 0.00 | 0.00 | 0.00 | 28 | 1015.7 |
| 20260508200538 | 74 | 280 | 5.0 | 12.0 | 0.00 | 0.00 | 0.00 | 28 | 1015.8 |
| 20260508200053 | 74 | 198 | 6.0 | 13.0 | 0.00 | 0.00 | 0.00 | 29 | 1015.8 |
| 20260508195539 | 73 | 252 | 5.0 | 13.0 | 0.00 | 0.00 | 0.00 | 30 | 1015.8 |
| 20260508195039 | 73 | 28 | 6.0 | 13.0 | 0.00 | 0.00 | 0.00 | 29 | 1015.8 |
| 20260508194550 | 73 | 250 | 8.0 | 12.0 | 0.00 | 0.00 | 0.00 | 29 | 1015.8 |
| 20260508194039 | 73 | 250 | 7.0 | 12.0 | 0.00 | 0.00 | 0.00 | 31 | 1015.8 |
| 20260508193538 | 73 | 227 | 7.0 | 14.0 | 0.00 | 0.00 | 0.00 | 32 | 1015.9 |
| 20260508193110 | 73 | 44 | 6.0 | 15.0 | 0.00 | 0.00 | 0.00 | 31 | 1015.9 |
| 20260508192538 | 73 | 290 | 7.0 | 15.0 | 0.00 | 0.00 | 0.00 | 32 | 1015.9 |
| 20260508192043 | 73 | 308 | 8.0 | 15.0 | 0.00 | 0.00 | 0.00 | 31 | 1015.9 |
| 20260508191555 | 73 | 302 | 6.0 | 15.0 | 0.00 | 0.00 | 0.00 | 33 | 1016.0 |
| 20260508191038 | 72 | 234 | 6.0 | 15.0 | 0.00 | 0.00 | 0.00 | 32 | 1016.1 |
| 20260508190540 | 72 | 249 | 9.0 | 15.0 | 0.00 | 0.00 | 0.00 | 31 | 1016.1 |
| 20260508190105 | 72 | 287 | 6.0 | 13.0 | 0.00 | 0.00 | 0.00 | 32 | 1016.1 |
| 20260508185543 | 72 | 262 | 7.0 | 15.0 | 0.00 | 0.00 | 0.00 | 33 | 1016.1 |
| 20260508185041 | 72 | 247 | 7.0 | 15.0 | 0.00 | 0.00 | 0.00 | 32 | 1016.2 |
| 20260508184558 | 72 | 261 | 6.0 | 15.0 | 0.00 | 0.00 | 0.00 | 32 | 1016.2 |
| 20260508184039 | 72 | 209 | 6.0 | 12.0 | 0.00 | 0.00 | 0.00 | 32 | 1016.2 |
| 20260508183539 | 72 | 225 | 7.0 | 12.0 | 0.00 | 0.00 | 0.00 | 32 | 1016.3 |
| 20260508183111 | 72 | 236 | 7.0 | 12.0 | 0.00 | 0.00 | 0.00 | 33 | 1016.4 |
| 20260508182541 | 71 | 196 | 6.0 | 13.0 | 0.00 | 0.00 | 0.00 | 35 | 1016.4 |
| 20260508182039 | 71 | 201 | 6.0 | 13.0 | 0.00 | 0.00 | 0.00 | 35 | 1016.5 |
| 20260508181553 | 71 | 273 | 7.0 | 12.0 | 0.00 | 0.00 | 0.00 | 34 | 1016.6 |
| 20260508181042 | 71 | 196 | 5.0 | 11.0 | 0.00 | 0.00 | 0.00 | 37 | 1016.6 |
| 20260508180539 | 71 | 269 | 3.0 | 11.0 | 0.00 | 0.00 | 0.00 | 36 | 1016.6 |
| 20260508175539 | 71 | 155 | 4.0 | 10.0 | 0.00 | 0.00 | 0.00 | 35 | 1016.7 |
| 20260508175038 | 71 | 0 | 5.0 | 10.0 | 0.00 | 0.00 | 0.00 | 35 | 1016.7 |
| 20260508174604 | 71 | 244 | 4.0 | 10.0 | 0.00 | 0.00 | 0.00 | 37 | 1016.8 |
| 20260508174038 | 70 | 218 | 3.0 | 8.0 | 0.00 | 0.00 | 0.00 | 34 | 1016.8 |
| 20260508173537 | 70 | 173 | 4.0 | 10.0 | 0.00 | 0.00 | 0.00 | 38 | 1016.8 |
| 20260508173051 | 70 | 257 | 4.0 | 11.0 | 0.00 | 0.00 | 0.00 | 39 | 1016.9 |
| 20260508172541 | 70 | 238 | 2.0 | 11.0 | 0.00 | 0.00 | 0.00 | 39 | 1016.8 |
| 20260508172044 | 69 | 241 | 5.0 | 10.0 | 0.00 | 0.00 | 0.00 | 38 | 1016.8 |
| 20260508171554 | 69 | 286 | 3.0 | 10.0 | 0.00 | 0.00 | 0.00 | 39 | 1016.9 |
| 20260508171042 | 69 | 257 | 3.0 | 10.0 | 0.00 | 0.00 | 0.00 | 40 | 1016.9 |
| 20260508170540 | 69 | 269 | 4.0 | 10.0 | 0.00 | 0.00 | 0.00 | 41 | 1016.9 |
| 20260508170059 | 69 | 260 | 3.0 | 9.0 | 0.00 | 0.00 | 0.00 | 43 | 1016.8 |
| 20260508165539 | 69 | 264 | 5.0 | 10.0 | 0.00 | 0.00 | 0.00 | 43 | 1016.8 |
| 20260508165040 | 69 | 228 | 3.0 | 10.0 | 0.00 | 0.00 | 0.00 | 46 | 1016.8 |
| 20260508164613 | 69 | 224 | 5.0 | 10.0 | 0.00 | 0.00 | 0.00 | 46 | 1016.8 |
| 20260508164038 | 69 | 309 | 6.0 | 10.0 | 0.00 | 0.00 | 0.00 | 46 | 1016.7 |
| 20260508163542 | 68 | 241 | 2.0 | 7.0 | 0.00 | 0.00 | 0.00 | 47 | 1016.7 |
| 20260508163051 | 68 | 225 | 1.0 | 8.0 | 0.00 | 0.00 | 0.00 | 47 | 1016.6 |
| 20260508162538 | 68 | 204 | 1.0 | 8.0 | 0.00 | 0.00 | 0.00 | 47 | 1016.7 |
| 20260508162039 | 68 | 244 | 2.0 | 5.0 | 0.00 | 0.00 | 0.00 | 47 | 1016.7 |
| 20260508161602 | 68 | 224 | 2.0 | 4.0 | 0.00 | 0.00 | 0.00 | 47 | 1016.7 |
| 20260508161038 | 67 | 261 | 1.0 | 4.0 | 0.00 | 0.00 | 0.00 | 49 | 1016.6 |
| 20260508160538 | 67 | 0 | 0.0 | 4.0 | 0.00 | 0.00 | 0.00 | 49 | 1016.6 |
| 20260508160054 | 67 | 218 | 1.0 | 6.0 | 0.00 | 0.00 | 0.00 | 49 | 1016.7 |
| 20260508155539 | 66 | 225 | 1.0 | 7.0 | 0.00 | 0.00 | 0.00 | 49 | 1016.7 |
| 20260508155039 | 66 | 195 | 3.0 | 7.0 | 0.00 | 0.00 | 0.00 | 50 | 1016.7 |
| 20260508154553 | 66 | 0 | 0.0 | 4.0 | 0.00 | 0.00 | 0.00 | 50 | 1016.5 |
| 20260508154040 | 65 | 161 | 0.0 | 4.0 | 0.00 | 0.00 | 0.00 | 51 | 1016.5 |
| 20260508153539 | 64 | 170 | 2.0 | 4.0 | 0.00 | 0.00 | 0.00 | 52 | 1016.5 |
| 20260508153056 | 64 | 48 | 1.0 | 3.0 | 0.00 | 0.00 | 0.00 | 53 | 1016.5 |
| 20260508152538 | 63 | 70 | 1.0 | 3.0 | 0.00 | 0.00 | 0.00 | 55 | 1016.5 |
| 20260508152038 | 63 | 85 | 1.0 | 3.0 | 0.00 | 0.00 | 0.00 | 55 | 1016.4 |
| 20260508151551 | 62 | 77 | 0.0 | 3.0 | 0.00 | 0.00 | 0.00 | 55 | 1016.4 |
| 20260508151039 | 61 | 0 | 0.0 | 2.0 | 0.00 | 0.00 | 0.00 | 56 | 1016.4 |
| 20260508150539 | 60 | 0 | 0.0 | 2.0 | 0.00 | 0.00 | 0.00 | 57 | 1016.5 |
| 20260508150051 | 60 | 0 | 0.0 | 2.0 | 0.00 | 0.00 | 0.00 | 57 | 1016.4 |
| 20260508145540 | 59 | 0 | 0.0 | 2.0 | 0.00 | 0.00 | 0.00 | 58 | 1016.4 |
| 20260508145039 | 59 | 196 | 0.0 | 3.0 | 0.00 | 0.00 | 0.00 | 59 | 1016.4 |
| 20260508144552 | 58 | 211 | 1.0 | 3.0 | 0.00 | 0.00 | 0.00 | 61 | 1016.3 |
| 20260508144040 | 58 | 192 | 0.0 | 3.0 | 0.00 | 0.00 | 0.00 | 63 | 1016.2 |
| 20260508143540 | 57 | 167 | 0.0 | 3.0 | 0.00 | 0.00 | 0.00 | 64 | 1016.2 |
| 20260508143055 | 56 | 0 | 0.0 | 3.0 | 0.00 | 0.00 | 0.00 | 66 | 1016.2 |
| 20260508142539 | 55 | 0 | 0.0 | 2.0 | 0.00 | 0.00 | 0.00 | 67 | 1016.1 |
| 20260508142039 | 54 | 0 | 1.0 | 2.0 | 0.00 | 0.00 | 0.00 | 68 | 1016.1 |
| 20260508141600 | 54 | 0 | 0.0 | 2.0 | 0.00 | 0.00 | 0.00 | 69 | 1016.1 |
| 20260508141038 | 53 | 79 | 1.0 | 2.0 | 0.00 | 0.00 | 0.00 | 71 | 1016.1 |
| 20260508140541 | 52 | 0 | 0.0 | 1.0 | 0.00 | 0.00 | 0.00 | 71 | 1016.1 |
| 20260508140052 | 51 | 0 | 0.0 | 1.0 | 0.00 | 0.00 | 0.00 | 72 | 1016.0 |
| 20260508135540 | 50 | 0 | 0.0 | 1.0 | 0.00 | 0.00 | 0.00 | 72 | 1015.9 |
| 20260508135039 | 50 | 0 | 0.0 | 3.0 | 0.00 | 0.00 | 0.00 | 73 | 1015.9 |
| 20260508134553 | 49 | 0 | 0.0 | 3.0 | 0.00 | 0.00 | 0.00 | 73 | 1015.8 |
| 20260508134039 | 48 | 85 | 0.0 | 2.0 | 0.00 | 0.00 | 0.00 | 73 | 1015.7 |
| 20260508133539 | 47 | 0 | 0.0 | 2.0 | 0.00 | 0.00 | 0.00 | 73 | 1015.7 |
| 20260508133048 | 47 | 0 | 0.0 | 2.0 | 0.00 | 0.00 | 0.00 | 73 | 1015.6 |
| 20260508132539 | 46 | 360 | 0.0 | 3.0 | 0.00 | 0.00 | 0.00 | 73 | 1015.6 |
| 20260508132039 | 45 | 0 | 0.0 | 4.0 | 0.00 | 0.00 | 0.00 | 72 | 1015.5 |
| 20260508131603 | 45 | 89 | 1.0 | 4.0 | 0.00 | 0.00 | 0.00 | 72 | 1015.4 |
| 20260508131041 | 45 | 69 | 2.0 | 4.0 | 0.00 | 0.00 | 0.00 | 72 | 1015.3 |
| 20260508130542 | 45 | 73 | 1.0 | 3.0 | 0.00 | 0.00 | 0.00 | 71 | 1015.3 |
| 20260508130048 | 45 | 73 | 1.0 | 4.0 | 0.00 | 0.00 | 0.00 | 71 | 1015.2 |
| 20260508125539 | 44 | 77 | 1.0 | 4.0 | 0.00 | 0.00 | 0.00 | 71 | 1015.1 |
| 20260508125038 | 44 | 0 | 1.0 | 4.0 | 0.00 | 0.00 | 0.00 | 71 | 1015.1 |
| 20260508124548 | 44 | 62 | 1.0 | 3.0 | 0.00 | 0.00 | 0.00 | 71 | 1015.0 |
| 20260508124038 | 44 | 0 | 0.0 | 3.0 | 0.00 | 0.00 | 0.00 | 70 | 1015.0 |
| 20260508123539 | 44 | 61 | 2.0 | 5.0 | 0.00 | 0.00 | 0.00 | 70 | 1014.9 |
| 20260508123112 | 44 | 62 | 1.0 | 5.0 | 0.00 | 0.00 | 0.00 | 69 | 1014.8 |
| 20260508122538 | 44 | 63 | 3.0 | 5.0 | 0.00 | 0.00 | 0.00 | 69 | 1014.7 |
| 20260508122042 | 45 | 46 | 2.0 | 4.0 | 0.00 | 0.00 | 0.00 | 69 | 1014.8 |
| 20260508121601 | 45 | 43 | 1.0 | 3.0 | 0.00 | 0.00 | 0.00 | 69 | 1014.7 |
| 20260508121038 | 45 | 71 | 1.0 | 3.0 | 0.00 | 0.00 | 0.00 | 69 | 1014.7 |
| 20260508120539 | 45 | 0 | 0.0 | 5.0 | 0.00 | 0.00 | 0.00 | 69 | 1014.6 |
| 20260508120108 | 45 | 0 | 1.0 | 5.0 | 0.00 | 0.00 | 0.00 | 69 | 1014.6 |
| 20260508115538 | 45 | 78 | 2.0 | 5.0 | 0.00 | 0.00 | 0.00 | 69 | 1014.5 |
| 20260508115038 | 45 | 76 | 1.0 | 4.0 | 0.00 | 0.00 | 0.00 | 69 | 1014.5 |
| 20260508114558 | 46 | 72 | 1.0 | 3.0 | 0.00 | 0.00 | 0.00 | 69 | 1014.5 |
| 20260508114038 | 46 | 71 | 1.0 | 3.0 | 0.00 | 0.00 | 0.00 | 69 | 1014.5 |
| 20260508113539 | 46 | 71 | 1.0 | 3.0 | 0.00 | 0.00 | 0.00 | 70 | 1014.5 |
| 20260508113100 | 46 | 0 | 0.0 | 3.0 | 0.00 | 0.00 | 0.00 | 70 | 1014.5 |
| 20260508112538 | 46 | 71 | 2.0 | 4.0 | 0.00 | 0.00 | 0.00 | 70 | 1014.5 |
| 20260508112039 | 46 | 88 | 2.0 | 5.0 | 0.00 | 0.00 | 0.00 | 70 | 1014.5 |
| 20260508111553 | 46 | 87 | 2.0 | 5.0 | 0.00 | 0.00 | 0.00 | 69 | 1014.4 |
| 20260508111039 | 46 | 90 | 2.0 | 5.0 | 0.00 | 0.00 | 0.00 | 70 | 1014.4 |
| 20260508110539 | 46 | 88 | 2.0 | 5.0 | 0.00 | 0.00 | 0.00 | 70 | 1014.4 |
| 20260508110100 | 45 | 82 | 1.0 | 5.0 | 0.00 | 0.00 | 0.00 | 70 | 1014.4 |
| 20260508105539 | 45 | 74 | 2.0 | 5.0 | 0.00 | 0.00 | 0.00 | 70 | 1014.4 |
| 20260508105039 | 45 | 92 | 3.0 | 4.0 | 0.00 | 0.00 | 0.00 | 70 | 1014.3 |
| 20260508104550 | 45 | 86 | 2.0 | 4.0 | 0.00 | 0.00 | 0.00 | 70 | 1014.2 |
| 20260508104038 | 45 | 66 | 2.0 | 4.0 | 0.00 | 0.00 | 0.00 | 70 | 1014.2 |
| 20260508103540 | 45 | 59 | 1.0 | 4.0 | 0.00 | 0.00 | 0.00 | 70 | 1014.1 |
| 20260508103100 | 45 | 74 | 2.0 | 4.0 | 0.00 | 0.00 | 0.00 | 70 | 1014.0 |
| 20260508102539 | 45 | 80 | 2.0 | 4.0 | 0.00 | 0.00 | 0.00 | 70 | 1014.1 |
| 20260508102039 | 45 | 85 | 3.0 | 4.0 | 0.00 | 0.00 | 0.00 | 70 | 1014.1 |
| 20260508101553 | 45 | 110 | 2.0 | 4.0 | 0.00 | 0.00 | 0.00 | 70 | 1014.1 |
| 20260508101041 | 45 | 100 | 1.0 | 3.0 | 0.00 | 0.00 | 0.00 | 71 | 1014.0 |
| 20260508100539 | 45 | 61 | 1.0 | 5.0 | 0.00 | 0.00 | 0.00 | 70 | 1014.1 |
| 20260508100050 | 45 | 46 | 2.0 | 6.0 | 0.00 | 0.00 | 0.00 | 70 | 1014.0 |
| 20260508095541 | 45 | 40 | 4.0 | 6.0 | 0.00 | 0.00 | 0.00 | 70 | 1014.0 |
| 20260508095041 | 45 | 53 | 4.0 | 6.0 | 0.00 | 0.00 | 0.00 | 70 | 1013.9 |
| 20260508094546 | 45 | 69 | 2.0 | 4.0 | 0.00 | 0.00 | 0.00 | 69 | 1014.0 |
| 20260508094038 | 45 | 55 | 1.0 | 4.0 | 0.00 | 0.00 | 0.00 | 69 | 1014.1 |
| 20260508093543 | 45 | 84 | 1.0 | 4.0 | 0.00 | 0.00 | 0.00 | 69 | 1014.0 |
| 20260508093046 | 45 | 28 | 2.0 | 5.0 | 0.00 | 0.00 | 0.00 | 69 | 1014.0 |
| 20260508092539 | 46 | 349 | 2.0 | 5.0 | 0.00 | 0.00 | 0.00 | 68 | 1014.0 |
| 20260508092039 | 46 | 344 | 3.0 | 5.0 | 0.00 | 0.00 | 0.00 | 68 | 1014.0 |
| 20260508091552 | 46 | 327 | 2.0 | 4.0 | 0.00 | 0.00 | 0.00 | 68 | 1014.0 |
| 20260508091040 | 46 | 49 | 0.0 | 4.0 | 0.00 | 0.00 | 0.00 | 67 | 1014.0 |
| 20260508090539 | 46 | 137 | 1.0 | 4.0 | 0.00 | 0.00 | 0.00 | 67 | 1014.1 |
| 20260508090052 | 46 | 0 | 0.0 | 5.0 | 0.00 | 0.00 | 0.00 | 67 | 1014.0 |
| 20260508085538 | 46 | 355 | 2.0 | 5.0 | 0.00 | 0.00 | 0.00 | 66 | 1014.0 |
| 20260508085040 | 47 | 360 | 2.0 | 5.0 | 0.00 | 0.00 | 0.00 | 66 | 1013.9 |
| 20260508084549 | 47 | 352 | 1.0 | 3.0 | 0.00 | 0.00 | 0.00 | 66 | 1014.0 |
| 20260508084038 | 47 | 0 | 0.0 | 2.0 | 0.00 | 0.00 | 0.00 | 66 | 1014.0 |
| 20260508083539 | 47 | 0 | 0.0 | 4.0 | 0.00 | 0.00 | 0.00 | 66 | 1014.1 |
| 20260508083050 | 47 | 251 | 0.0 | 7.0 | 0.00 | 0.00 | 0.00 | 66 | 1014.0 |
| 20260508082538 | 47 | 178 | 2.0 | 9.0 | 0.00 | 0.00 | 0.00 | 65 | 1014.0 |
| 20260508082039 | 47 | 167 | 4.0 | 9.0 | 0.00 | 0.00 | 0.00 | 65 | 1014.1 |
| 20260508081548 | 47 | 180 | 0.0 | 5.0 | 0.00 | 0.00 | 0.00 | 64 | 1014.0 |
| 20260508081039 | 47 | 38 | 1.0 | 3.0 | 0.00 | 0.00 | 0.00 | 64 | 1013.9 |
| 20260508080538 | 47 | 38 | 2.0 | 4.0 | 0.00 | 0.00 | 0.00 | 64 | 1014.0 |
| 20260508080054 | 47 | 38 | 2.0 | 4.0 | 0.00 | 0.00 | 0.00 | 64 | 1013.9 |
| 20260508075538 | 47 | 39 | 3.0 | 4.0 | 0.00 | 0.00 | 0.00 | 64 | 1014.0 |
| 20260508075040 | 48 | 54 | 2.0 | 4.0 | 0.00 | 0.00 | 0.00 | 63 | 1014.0 |
| 20260508074550 | 48 | 65 | 2.0 | 4.0 | 0.00 | 0.00 | 0.00 | 63 | 1014.0 |
| 20260508074040 | 48 | 77 | 2.0 | 4.0 | 0.00 | 0.00 | 0.00 | 63 | 1013.9 |
| 20260508073539 | 48 | 61 | 0.0 | 3.0 | 0.00 | 0.00 | 0.00 | 63 | 1013.9 |
| 20260508073049 | 49 | 61 | 1.0 | 3.0 | 0.00 | 0.00 | 0.00 | 63 | 1014.0 |
| 20260508072538 | 49 | 61 | 2.0 | 3.0 | 0.00 | 0.00 | 0.00 | 63 | 1013.9 |
| 20260508072039 | 49 | 60 | 0.0 | 2.0 | 0.00 | 0.00 | 0.00 | 62 | 1014.0 |
| 20260508071552 | 49 | 0 | 0.0 | 1.0 | 0.00 | 0.00 | 0.00 | 62 | 1014.0 |
| 20260508071038 | 50 | 0 | 0.0 | 3.0 | 0.00 | 0.00 | 0.00 | 62 | 1014.0 |
| 20260508070538 | 50 | 0 | 0.0 | 3.0 | 0.00 | 0.00 | 0.00 | 62 | 1013.9 |
| 20260508070053 | 50 | 61 | 2.0 | 3.0 | 0.00 | 0.00 | 0.00 | 62 | 1014.0 |
| 20260508065538 | 50 | 90 | 1.0 | 3.0 | 0.00 | 0.00 | 0.00 | 61 | 1013.9 |
| 20260508065038 | 51 | 119 | 1.0 | 3.0 | 0.00 | 0.00 | 0.00 | 61 | 1013.9 |
| 20260508064555 | 51 | 119 | 1.0 | 3.0 | 0.00 | 0.00 | 0.00 | 61 | 1013.9 |
| 20260508064042 | 51 | 119 | 1.0 | 3.0 | 0.00 | 0.00 | 0.00 | 61 | 1013.9 |
| 20260508063539 | 51 | 119 | 1.0 | 5.0 | 0.00 | 0.00 | 0.00 | 61 | 1013.8 |
| 20260508063102 | 51 | 0 | 1.0 | 5.0 | 0.00 | 0.00 | 0.00 | 61 | 1013.7 |
| 20260508062538 | 52 | 351 | 3.0 | 5.0 | 0.00 | 0.00 | 0.00 | 61 | 1013.7 |
| 20260508062038 | 52 | 348 | 3.0 | 5.0 | 0.00 | 0.00 | 0.00 | 60 | 1013.7 |
| 20260508061553 | 52 | 346 | 3.0 | 5.0 | 0.00 | 0.00 | 0.00 | 60 | 1013.7 |
| 20260508061038 | 52 | 352 | 2.0 | 5.0 | 0.00 | 0.00 | 0.00 | 60 | 1013.6 |
| 20260508060538 | 52 | 344 | 2.0 | 6.0 | 0.00 | 0.00 | 0.00 | 60 | 1013.6 |
| 20260508060049 | 53 | 333 | 3.0 | 6.0 | 0.00 | 0.00 | 0.00 | 60 | 1013.6 |
| 20260508055539 | 53 | 327 | 3.0 | 7.0 | 0.00 | 0.00 | 0.00 | 59 | 1013.7 |
| 20260508055038 | 53 | 300 | 3.0 | 7.0 | 0.00 | 0.00 | 0.00 | 59 | 1013.6 |
| 20260508054547 | 53 | 307 | 3.0 | 5.0 | 0.00 | 0.00 | 0.00 | 58 | 1013.6 |
| 20260508054039 | 53 | 298 | 3.0 | 4.0 | 0.00 | 0.00 | 0.00 | 58 | 1013.6 |
| 20260508053538 | 54 | 286 | 1.0 | 3.0 | 0.00 | 0.00 | 0.00 | 57 | 1013.6 |
| 20260508053102 | 54 | 236 | 0.0 | 4.0 | 0.00 | 0.00 | 0.00 | 57 | 1013.5 |
| 20260508052539 | 54 | 0 | 1.0 | 4.0 | 0.00 | 0.00 | 0.00 | 56 | 1013.6 |
| 20260508052038 | 55 | 360 | 2.0 | 4.0 | 0.00 | 0.00 | 0.00 | 55 | 1013.5 |
| 20260508051548 | 55 | 360 | 2.0 | 4.0 | 0.00 | 0.00 | 0.00 | 55 | 1013.6 |
| 20260508051040 | 55 | 203 | 1.0 | 4.0 | 0.00 | 0.00 | 0.00 | 55 | 1013.5 |
| 20260508050538 | 55 | 30 | 2.0 | 5.0 | 0.00 | 0.00 | 0.00 | 54 | 1013.5 |
| 20260508050052 | 56 | 30 | 2.0 | 5.0 | 0.00 | 0.00 | 0.00 | 54 | 1013.3 |
| 20260508045538 | 56 | 32 | 3.0 | 5.0 | 0.00 | 0.00 | 0.00 | 54 | 1013.3 |
| 20260508045039 | 57 | 37 | 2.0 | 4.0 | 0.00 | 0.00 | 0.00 | 54 | 1013.2 |
| 20260508044545 | 57 | 36 | 2.0 | 3.0 | 0.00 | 0.00 | 0.00 | 53 | 1013.3 |
| 20260508044040 | 58 | 360 | 2.0 | 3.0 | 0.00 | 0.00 | 0.00 | 52 | 1013.3 |
| 20260508043539 | 58 | 360 | 2.0 | 4.0 | 0.00 | 0.00 | 0.00 | 52 | 1013.3 |
| 20260508043058 | 58 | 360 | 2.0 | 4.0 | 0.00 | 0.00 | 0.00 | 51 | 1013.3 |
| 20260508042539 | 58 | 45 | 2.0 | 5.0 | 0.00 | 0.00 | 0.00 | 51 | 1013.3 |
| 20260508042038 | 58 | 360 | 3.0 | 5.0 | 0.00 | 0.00 | 0.00 | 51 | 1013.3 |
| 20260508041550 | 58 | 360 | 3.0 | 5.0 | 0.00 | 0.00 | 0.00 | 51 | 1013.3 |
| 20260508041039 | 57 | 360 | 3.0 | 6.0 | 0.00 | 0.00 | 0.00 | 52 | 1013.2 |
| 20260508040538 | 57 | 53 | 3.0 | 6.0 | 0.00 | 0.00 | 0.00 | 53 | 1013.1 |
| 20260508040055 | 57 | 59 | 4.0 | 6.0 | 0.00 | 0.00 | 0.00 | 53 | 1013.1 |
| 20260508035538 | 58 | 360 | 3.0 | 5.0 | 0.00 | 0.00 | 0.00 | 54 | 1013.1 |
| 20260508035038 | 58 | 360 | 2.0 | 3.0 | 0.00 | 0.00 | 0.00 | 53 | 1013.1 |
| 20260508034547 | 59 | 360 | 1.0 | 3.0 | 0.00 | 0.00 | 0.00 | 52 | 1013.0 |
| 20260508034038 | 59 | 360 | 1.0 | 3.0 | 0.00 | 0.00 | 0.00 | 51 | 1013.1 |
| 20260508033538 | 60 | 360 | 1.0 | 3.0 | 0.00 | 0.00 | 0.00 | 51 | 1013.0 |
| 20260508033048 | 60 | 360 | 1.0 | 3.0 | 0.00 | 0.00 | 0.00 | 51 | 1013.0 |
| 20260508032539 | 61 | 360 | 1.0 | 3.0 | 0.00 | 0.00 | 0.00 | 49 | 1012.9 |
| 20260508032042 | 61 | 360 | 0.0 | 2.0 | 0.00 | 0.00 | 0.00 | 47 | 1012.9 |
| 20260508031551 | 62 | 0 | 0.0 | 2.0 | 0.00 | 0.00 | 0.00 | 46 | 1012.8 |
| 20260508031038 | 63 | 140 | 0.0 | 2.0 | 0.00 | 0.00 | 0.00 | 48 | 1012.8 |
| 20260508030538 | 63 | 0 | 0.0 | 0.0 | 0.00 | 0.00 | 0.00 | 45 | 1012.7 |
| 20260508030053 | 64 | 0 | 0.0 | 0.0 | 0.00 | 0.00 | 0.00 | 43 | 1012.7 |
| 20260508025538 | 64 | 0 | 0.0 | 2.0 | 0.00 | 0.00 | 0.00 | 44 | 1012.7 |
| 20260508025040 | 65 | 0 | 0.0 | 2.0 | 0.00 | 0.00 | 0.00 | 44 | 1012.7 |
| 20260508024553 | 66 | 0 | 0.0 | 2.0 | 0.00 | 0.00 | 0.00 | 44 | 1012.7 |
| 20260508024038 | 67 | 0 | 0.0 | 2.0 | 0.00 | 0.00 | 0.00 | 43 | 1012.6 |
| 20260508023538 | 68 | 0 | 0.0 | 2.0 | 0.00 | 0.00 | 0.00 | 40 | 1012.6 |
| 20260508023051 | 69 | 0 | 0.0 | 3.0 | 0.00 | 0.00 | 0.00 | 41 | 1012.6 |
| 20260508022538 | 69 | 140 | 1.0 | 3.0 | 0.00 | 0.00 | 0.00 | 41 | 1012.5 |
| 20260508022038 | 70 | 148 | 1.0 | 3.0 | 0.00 | 0.00 | 0.00 | 40 | 1012.5 |
| 20260508021555 | 71 | 0 | 0.0 | 0.0 | 0.00 | 0.00 | 0.00 | 38 | 1012.5 |
| 20260508021037 | 72 | 0 | 0.0 | 0.0 | 0.00 | 0.00 | 0.00 | 36 | 1012.5 |
| 20260508020538 | 73 | 0 | 0.0 | 0.0 | 0.00 | 0.00 | 0.00 | 37 | 1012.4 |
| 20260508020057 | 73 | 0 | 0.0 | 0.0 | 0.00 | 0.00 | 0.00 | 37 | 1012.4 |
| 20260508015538 | 74 | 0 | 0.0 | 3.0 | 0.00 | 0.00 | 0.00 | 38 | 1012.5 |
| 20260508015038 | 74 | 0 | 0.0 | 4.0 | 0.00 | 0.00 | 0.00 | 38 | 1012.4 |
| 20260508014553 | 75 | 181 | 1.0 | 4.0 | 0.00 | 0.00 | 0.00 | 35 | 1012.4 |
| 20260508014038 | 75 | 186 | 2.0 | 4.0 | 0.00 | 0.00 | 0.00 | 33 | 1012.4 |
| 20260508013538 | 75 | 194 | 1.0 | 9.0 | 0.00 | 0.00 | 0.00 | 32 | 1012.4 |
| 20260508013057 | 75 | 177 | 1.0 | 9.0 | 0.00 | 0.00 | 0.00 | 30 | 1012.4 |
| 20260508012538 | 76 | 283 | 4.0 | 8.0 | 0.00 | 0.00 | 0.00 | 29 | 1012.4 |
| 20260508012038 | 76 | 0 | 0.0 | 4.0 | 0.00 | 0.00 | 0.00 | 30 | 1012.4 |
| 20260508011549 | 76 | 301 | 1.0 | 5.0 | 0.00 | 0.00 | 0.00 | 30 | 1012.5 |
| 20260508011037 | 76 | 0 | 1.0 | 5.0 | 0.00 | 0.00 | 0.00 | 29 | 1012.5 |
| 20260508010538 | 77 | 241 | 1.0 | 6.0 | 0.00 | 0.00 | 0.00 | 30 | 1012.6 |
| 20260508010059 | 77 | 188 | 3.0 | 6.0 | 0.00 | 0.00 | 0.00 | 29 | 1012.6 |
| 20260508005541 | 77 | 211 | 3.0 | 8.0 | 0.00 | 0.00 | 0.00 | 29 | 1012.6 |
| 20260508005041 | 77 | 238 | 2.0 | 8.0 | 0.00 | 0.00 | 0.00 | 28 | 1012.7 |
| 20260508004554 | 77 | 227 | 3.0 | 8.0 | 0.00 | 0.00 | 0.00 | 29 | 1012.6 |
| 20260508004042 | 77 | 194 | 2.0 | 8.0 | 0.00 | 0.00 | 0.00 | 29 | 1012.7 |
| 20260508003538 | 77 | 197 | 2.0 | 8.0 | 0.00 | 0.00 | 0.00 | 29 | 1012.7 |
| 20260508003055 | 77 | 234 | 4.0 | 8.0 | 0.00 | 0.00 | 0.00 | 29 | 1012.6 |
| 20260508002539 | 76 | 0 | 2.0 | 6.0 | 0.00 | 0.00 | 0.00 | 29 | 1012.7 |
| 20260508002039 | 76 | 176 | 2.0 | 5.0 | 0.00 | 0.00 | 0.00 | 30 | 1012.7 |
| 20260508001612 | 76 | 63 | 0.0 | 4.0 | 0.00 | 0.00 | 0.00 | 30 | 1012.7 |
| 20260508001042 | 76 | 61 | 0.0 | 5.0 | 0.00 | 0.00 | 0.00 | 31 | 1012.8 |
| 20260508000543 | 76 | 88 | 1.0 | 6.0 | 0.00 | 0.00 | 0.00 | 29 | 1012.9 |
| 20260508000051 | 77 | 89 | 2.0 | 7.0 | 0.00 | 0.00 | 0.00 | 30 | 1012.8 |
| 20260507235539 | 77 | 188 | 3.0 | 7.0 | 0.00 | 0.00 | 0.00 | 29 | 1013.0 |
| 20260507235039 | 76 | 0 | 1.0 | 7.0 | 0.00 | 0.00 | 0.00 | 29 | 1013.1 |
| 20260507234551 | 76 | 173 | 2.0 | 7.0 | 0.00 | 0.00 | 0.00 | 29 | 1013.1 |
| 20260507234100 | 76 | 198 | 0.0 | 7.0 | 0.00 | 0.00 | 0.00 | 30 | 1013.1 |
| 20260507233540 | 75 | 93 | 1.0 | 5.0 | 0.00 | 0.00 | 0.00 | 31 | 1013.1 |
| 20260507233054 | 75 | 165 | 0.0 | 6.0 | 0.00 | 0.00 | 0.00 | 31 | 1013.2 |
| 20260507232538 | 75 | 195 | 0.0 | 9.0 | 0.00 | 0.00 | 0.00 | 31 | 1013.2 |
| 20260507232039 | 75 | 198 | 2.0 | 9.0 | 0.00 | 0.00 | 0.00 | 32 | 1013.2 |
| 20260507231556 | 75 | 146 | 4.0 | 8.0 | 0.00 | 0.00 | 0.00 | 32 | 1013.3 |
| 20260507231039 | 75 | 86 | 1.0 | 8.0 | 0.00 | 0.00 | 0.00 | 32 | 1013.4 |
| 20260507230540 | 75 | 0 | 2.0 | 8.0 | 0.00 | 0.00 | 0.00 | 30 | 1013.4 |
| 20260507230055 | 74 | 160 | 3.0 | 8.0 | 0.00 | 0.00 | 0.00 | 30 | 1013.5 |
| 20260507225542 | 74 | 47 | 3.0 | 7.0 | 0.00 | 0.00 | 0.00 | 32 | 1013.5 |